Location: Arnolds Mill
(42.3415°N, 73.5951°W)
Time: 13:06:17
(UTC+00:00)

STARLINK-34282 - Pass Details

Date: 23 June 2025
Orbit: 300 x 302 km, 53.2° (Epoch: 26 June)

Event Time Altitude Azimuth Distance (km) Brightness Sun altitude
Exits shadow 05:59:12 18° 344° (NNW) 821 5.2 -22.7°
Drops below altitude 10° 06:00:54 10° 25° (NNE) 1,175 6.4 -22.6°
Sets 06:03:11 0° 45° (NE) 1,998 7.5 -22.5°
